Radiation Dose at Monitoring Post of Fukushima Daini Nuclear Power Station
Date,Time,MP-1(microSv/h),MP-2(microSv/h),MP-3(microSv/h),MP-4(microSv/h),MP-5(microSv/h),MP-6(microSv/h),MP-7(microSv/h),Wind Direction,Wind Velocity(m/s),Rain
2018/09/15,00:00,0.304,0.189,0.308,0.295,0.279,0.152,0.093,south-southwest,5.6,No
2018/09/15,00:10,0.308,0.188,0.303,0.294,0.281,0.151,0.092,south-southwest,6.0,No
2018/09/15,00:20,0.303,0.189,0.305,0.296,0.279,0.152,0.093,south-southwest,5.4,No
2018/09/15,00:30,0.306,0.188,0.305,0.295,0.281,0.152,0.093,south-southwest,5.9,No
2018/09/15,00:40,0.305,0.189,0.304,0.294,0.282,0.152,0.093,south-southwest,5.8,No
2018/09/15,00:50,0.304,0.187,0.307,0.296,0.279,0.152,0.094,south,5.1,No
2018/09/15,01:00,0.308,0.189,0.303,0.293,0.282,0.152,0.093,south-southwest,5.5,No
2018/09/15,01:10,0.304,0.189,0.306,0.296,0.280,0.151,0.093,south-southwest,5.1,No
2018/09/15,01:20,0.308,0.188,0.304,0.295,0.280,0.152,0.093,south-southwest,5.9,No
2018/09/15,01:30,0.305,0.191,0.306,0.295,0.283,0.153,0.094,south-southwest,5.3,No
2018/09/15,01:40,0.306,0.189,0.307,0.299,0.281,0.152,0.094,south-southwest,4.7,No
2018/09/15,01:50,0.307,0.190,0.305,0.294,0.283,0.153,0.094,south-southwest,5.0,No
2018/09/15,02:00,0.305,0.188,0.306,0.298,0.281,0.152,0.095,south-southwest,5.6,No
2018/09/15,02:10,0.308,0.189,0.304,0.296,0.281,0.153,0.094,south-southwest,6.2,No
2018/09/15,02:20,0.305,0.189,0.306,0.297,0.282,0.152,0.095,south-southwest,5.1,No
2018/09/15,02:30,0.307,0.189,0.305,0.296,0.279,0.152,0.094,south-southwest,5.7,No
2018/09/15,02:40,0.308,0.190,0.305,0.295,0.282,0.153,0.093,south-southwest,5.8,No
2018/09/15,02:50,0.304,0.188,0.306,0.297,0.281,0.151,0.094,south-southwest,4.9,No
2018/09/15,03:00,0.307,0.189,0.303,0.293,0.280,0.152,0.093,south-southwest,3.4,No
2018/09/15,03:10,0.305,0.188,0.307,0.296,0.283,0.153,0.093,south-southwest,3.2,No
2018/09/15,03:20,0.306,0.188,0.303,0.295,0.277,0.152,0.094,southwest,2.2,No
2018/09/15,03:30,0.305,0.188,0.304,0.293,0.283,0.152,0.093,south-southwest,4.5,No
2018/09/15,03:40,0.303,0.189,0.305,0.296,0.279,0.151,0.094,south,5.0,No
2018/09/15,03:50,0.307,0.187,0.304,0.293,0.279,0.153,0.093,south-southwest,4.1,No
2018/09/15,04:00,0.304,0.189,0.306,0.297,0.282,0.152,0.094,south-southwest,4.4,No
2018/09/15,04:10,0.306,0.188,0.303,0.294,0.280,0.151,0.093,south-southwest,5.9,No
2018/09/15,04:20,0.305,0.189,0.306,0.295,0.281,0.153,0.093,south-southwest,5.6,No
2018/09/15,04:30,0.305,0.189,0.304,0.297,0.282,0.152,0.094,south-southwest,5.7,No
2018/09/15,04:40,0.307,0.188,0.303,0.294,0.280,0.152,0.093,south-southwest,4.9,Yes
2018/09/15,04:50,0.305,0.188,0.306,0.296,0.282,0.153,0.094,southwest,4.6,Yes
2018/09/15,05:00,0.307,0.188,0.303,0.294,0.280,0.152,0.093,southwest,3.5,Yes
2018/09/15,05:10,0.306,0.190,0.308,0.296,0.281,0.153,0.093,southwest,2.9,Yes
2018/09/15,05:20,0.305,0.189,0.304,0.295,0.281,0.151,0.094,southwest,1.5,No
2018/09/15,05:30,0.307,0.188,0.306,0.293,0.281,0.152,0.094,south-southwest,2.3,No
2018/09/15,05:40,0.304,0.189,0.305,0.295,0.282,0.152,0.094,south-southwest,1.2,Yes
2018/09/15,05:50,0.308,0.189,0.305,0.294,0.279,0.150,0.093,south-southwest,0.7,Yes
2018/09/15,06:00,0.306,0.189,0.306,0.296,0.283,0.153,0.094,-,CALM,Yes
2018/09/15,06:10,0.307,0.189,0.304,0.294,0.281,0.152,0.094,west-southwest,0.9,Yes
2018/09/15,06:20,0.305,0.190,0.307,0.294,0.280,0.152,0.093,southwest,2.0,Yes
2018/09/15,06:30,0.304,0.187,0.304,0.294,0.282,0.152,0.094,south-southwest,1.9,Yes
2018/09/15,06:40,0.307,0.189,0.304,0.294,0.278,0.152,0.093,south-southwest,2.0,Yes
2018/09/15,06:50,0.306,0.188,0.306,0.296,0.280,0.153,0.093,-,CALM,Yes
2018/09/15,07:00,0.304,0.189,0.305,0.295,0.280,0.153,0.094,south,0.9,Yes
2018/09/15,07:10,0.307,0.190,0.307,0.293,0.280,0.153,0.093,south-southeast,1.0,Yes
2018/09/15,07:20,0.304,0.188,0.303,0.296,0.283,0.154,0.095,southeast,0.6,Yes
2018/09/15,07:30,0.308,0.189,0.305,0.293,0.281,0.152,0.094,south-southeast,1.8,Yes
2018/09/15,07:40,0.306,0.190,0.306,0.295,0.280,0.153,0.094,south,2.0,No
2018/09/15,07:50,0.305,0.190,0.303,0.295,0.283,0.153,0.094,south,1.8,Yes
2018/09/15,08:00,0.308,0.189,0.306,0.295,0.279,0.152,0.094,south,1.9,Yes
2018/09/15,08:10,0.305,0.189,0.305,0.297,0.282,0.153,0.095,south,0.9,Yes
2018/09/15,08:20,0.307,0.190,0.305,0.296,0.283,0.153,0.095,south,0.6,Yes
2018/09/15,08:30,0.308,0.190,0.307,0.296,0.280,0.152,0.094,-,CALM,Yes
2018/09/15,08:40,0.306,0.189,0.304,0.298,0.283,0.153,0.095,south-southwest,0.7,Yes
2018/09/15,08:50,0.309,0.191,0.306,0.293,0.283,0.154,0.096,south,2.4,Yes
2018/09/15,09:00,0.308,0.189,0.307,0.297,0.281,0.154,0.095,north,0.8,Yes
2018/09/15,09:10,0.306,0.192,0.305,0.295,0.283,0.155,0.096,south,1.4,Yes
2018/09/15,09:20,0.308,0.191,0.308,0.295,0.282,0.155,0.096,west-southwest,6.5,Yes
2018/09/15,09:30,0.306,0.192,0.305,0.297,0.281,0.155,0.098,-,CALM,Yes
2018/09/15,09:40,0.306,0.192,0.306,0.294,0.284,0.155,0.098,-,CALM,Yes
2018/09/15,09:50,0.307,0.192,0.304,0.297,0.280,0.155,0.097,southwest,2.3,Yes
2018/09/15,10:00,0.304,0.193,0.304,0.294,0.282,0.154,0.097,southwest,1.4,Yes
2018/09/15,10:10,0.307,0.191,0.304,0.291,0.281,0.154,0.096,southwest,1.4,No
2018/09/15,10:20,0.304,0.191,0.302,0.293,0.278,0.153,0.095,southwest,0.6,Yes
2018/09/15,10:30,0.304,0.191,0.301,0.291,0.281,0.153,0.095,south-southwest,0.8,Yes
2018/09/15,10:40,0.304,0.188,0.303,0.292,0.281,0.153,0.095,-,CALM,Yes
2018/09/15,10:50,0.302,0.189,0.301,0.292,0.278,0.151,0.095,-,CALM,Yes
2018/09/15,11:00,0.302,0.188,0.303,0.290,0.280,0.151,0.094,west,0.7,Yes
2018/09/15,11:10,0.304,0.187,0.301,0.294,0.281,0.151,0.093,-,CALM,Yes
2018/09/15,11:20,0.302,0.189,0.299,0.291,0.276,0.151,0.094,west-southwest,0.7,Yes
2018/09/15,11:30,0.304,0.188,0.303,0.290,0.280,0.152,0.094,-,CALM,Yes
2018/09/15,11:40,0.303,0.188,0.300,0.293,0.280,0.152,0.094,-,CALM,Yes
2018/09/15,11:50,0.301,0.188,0.302,0.289,0.277,0.151,0.094,-,CALM,Yes
2018/09/15,12:00,0.304,0.188,0.300,0.291,0.281,0.152,0.094,-,CALM,Yes
2018/09/15,12:10,0.302,0.188,0.299,0.293,0.278,0.151,0.094,-,CALM,Yes
2018/09/15,12:20,0.302,0.187,0.302,0.288,0.275,0.151,0.094,south-southeast,0.7,Yes
2018/09/15,12:30,0.305,0.186,0.301,0.292,0.281,0.151,0.093,-,CALM,Yes
2018/09/15,12:40,0.302,0.188,0.298,0.291,0.278,0.151,0.093,south-southwest,1.1,No
2018/09/15,12:50,0.299,0.188,0.301,0.288,0.277,0.150,0.093,south,2.1,No
2018/09/15,13:00,0.304,0.186,0.299,0.287,0.274,0.150,0.093,south,2.5,No
2018/09/15,13:10,0.302,0.184,0.297,0.292,0.277,0.149,0.092,south,1.7,No
2018/09/15,13:20,0.300,0.183,0.297,0.289,0.279,0.149,0.092,south,1.4,No
2018/09/15,13:30,0.298,0.186,0.300,0.287,0.278,0.150,0.091,south-southwest,0.8,No
2018/09/15,13:40,0.299,0.187,0.299,0.286,0.276,0.148,0.092,-,CALM,No
2018/09/15,13:50,0.298,0.186,0.297,0.290,0.275,0.148,0.091,-,CALM,No
2018/09/15,14:00,0.303,0.186,0.296,0.292,0.277,0.148,0.090,east,0.8,No
2018/09/15,14:10,0.302,0.184,0.296,0.291,0.276,0.148,0.091,northeast,1.4,No
2018/09/15,14:20,0.301,0.185,0.295,0.288,0.277,0.149,0.091,southeast,1.7,No
2018/09/15,14:30,0.301,0.184,0.296,0.286,0.276,0.148,0.090,southeast,1.7,No
2018/09/15,14:40,0.300,0.184,0.298,0.286,0.275,0.149,0.091,east-southeast,1.1,No
2018/09/15,14:50,0.299,0.184,0.298,0.288,0.276,0.149,0.090,east,1.3,No
2018/09/15,15:00,0.298,0.184,0.298,0.293,0.276,0.149,0.092,east-northeast,0.8,No
2018/09/15,15:10,0.297,0.183,0.302,0.290,0.275,0.150,0.091,east,1.0,No
2018/09/15,15:20,0.300,0.186,0.301,0.289,0.275,0.150,0.091,east-southeast,0.9,No
2018/09/15,15:30,0.299,0.186,0.298,0.292,0.275,0.148,0.092,east-northeast,0.8,No
2018/09/15,15:40,0.299,0.186,0.303,0.290,0.275,0.148,0.092,east-southeast,1.1,No
2018/09/15,15:50,0.304,0.187,0.300,0.288,0.276,0.149,0.092,east-southeast,1.0,No
2018/09/15,16:00,0.304,0.187,0.299,0.292,0.277,0.150,0.092,east-northeast,0.6,No
2018/09/15,16:10,0.301,0.186,0.300,0.291,0.276,0.151,0.092,east-northeast,0.9,No
2018/09/15,16:20,0.303,0.186,0.302,0.290,0.278,0.149,0.091,-,CALM,No
2018/09/15,16:30,0.304,0.187,0.298,0.293,0.276,0.149,0.092,east,1.1,No
2018/09/15,16:40,0.301,0.186,0.301,0.291,0.276,0.150,0.092,east-northeast,1.5,No
2018/09/15,16:50,0.303,0.188,0.300,0.290,0.277,0.150,0.091,northeast,1.6,No
2018/09/15,17:00,0.303,0.185,0.299,0.292,0.279,0.150,0.092,east-northeast,2.1,No
2018/09/15,17:10,0.301,0.187,0.301,0.290,0.282,0.149,0.092,northeast,2.1,No
2018/09/15,17:20,0.304,0.186,0.300,0.291,0.279,0.150,0.092,northeast,2.2,No
2018/09/15,17:30,0.301,0.185,0.299,0.294,0.280,0.149,0.091,northeast,2.2,No
2018/09/15,17:40,0.302,0.188,0.301,0.288,0.282,0.149,0.091,northeast,1.2,No
2018/09/15,17:50,0.304,0.187,0.299,0.291,0.279,0.151,0.091,east-northeast,1.0,No
2018/09/15,18:00,0.301,0.186,0.301,0.292,0.280,0.150,0.091,north-northeast,1.3,No
2018/09/15,18:10,0.304,0.185,0.300,0.290,0.280,0.150,0.092,north-northwest,1.2,No
2018/09/15,18:20,0.302,0.187,0.301,0.293,0.277,0.150,0.091,north-northwest,1.2,No
2018/09/15,18:30,0.300,0.187,0.301,0.290,0.281,0.150,0.092,north-northwest,1.5,No
2018/09/15,18:40,0.303,0.185,0.299,0.291,0.280,0.150,0.091,north-northwest,1.4,No
2018/09/15,18:50,0.300,0.186,0.303,0.292,0.278,0.151,0.091,north-northwest,0.8,No
2018/09/15,19:00,0.303,0.186,0.301,0.288,0.280,0.149,0.092,northwest,0.7,No
2018/09/15,19:10,0.302,0.186,0.301,0.292,0.278,0.150,0.091,north-northwest,1.1,No
2018/09/15,19:20,0.301,0.186,0.302,0.291,0.278,0.150,0.092,north-northeast,1.5,No
2018/09/15,19:30,0.302,0.186,0.299,0.291,0.281,0.149,0.092,north-northeast,2.7,No
2018/09/15,19:40,0.302,0.186,0.302,0.293,0.276,0.151,0.091,north,2.4,No
2018/09/15,19:50,0.302,0.186,0.302,0.291,0.279,0.150,0.092,north,3.1,No
2018/09/15,20:00,0.304,0.187,0.301,0.292,0.279,0.150,0.092,north,2.6,No
2018/09/15,20:10,0.301,0.187,0.302,0.292,0.277,0.150,0.091,north,3.5,No
2018/09/15,20:20,0.303,0.188,0.299,0.291,0.281,0.149,0.093,north,2.9,No
2018/09/15,20:30,0.303,0.187,0.303,0.294,0.277,0.150,0.091,north,2.7,No
2018/09/15,20:40,0.301,0.185,0.300,0.290,0.278,0.150,0.092,north-northwest,2.7,No
2018/09/15,20:50,0.303,0.186,0.302,0.293,0.281,0.150,0.092,northwest,1.8,No
2018/09/15,21:00,0.301,0.185,0.304,0.292,0.277,0.151,0.092,north-northwest,1.7,No
2018/09/15,21:10,0.303,0.187,0.300,0.289,0.279,0.149,0.092,north,1.6,No
2018/09/15,21:20,0.302,0.186,0.302,0.292,0.279,0.150,0.091,northwest,0.9,No
2018/09/15,21:30,0.301,0.187,0.302,0.291,0.278,0.150,0.092,north,1.2,No
2018/09/15,21:40,0.305,0.188,0.302,0.292,0.280,0.149,0.092,northwest,1.4,No
2018/09/15,21:50,0.303,0.186,0.302,0.293,0.279,0.150,0.092,north-northwest,1.3,No
2018/09/15,22:00,0.302,0.187,0.300,0.289,0.278,0.151,0.091,north-northwest,1.1,No
2018/09/15,22:10,0.304,0.186,0.303,0.293,0.281,0.150,0.091,north,0.7,No
2018/09/15,22:20,0.302,0.188,0.300,0.289,0.278,0.151,0.092,northwest,0.6,No
2018/09/15,22:30,0.303,0.185,0.300,0.292,0.279,0.149,0.093,west-northwest,0.8,No
2018/09/15,22:40,0.302,0.186,0.302,0.293,0.280,0.150,0.090,-,CALM,No
2018/09/15,22:50,0.302,0.188,0.299,0.290,0.277,0.151,0.092,-,CALM,No
2018/09/15,23:00,0.304,0.186,0.304,0.293,0.281,0.149,0.092,-,CALM,No
2018/09/15,23:10,0.301,0.187,0.301,0.292,0.278,0.150,0.091,-,CALM,No
2018/09/15,23:20,0.303,0.187,0.301,0.292,0.278,0.149,0.092,-,CALM,No
2018/09/15,23:30,0.303,0.187,0.304,0.292,0.280,0.150,0.092,-,CALM,No
2018/09/15,23:40,0.301,0.186,0.301,0.291,0.276,0.150,0.092,north-northwest,0.9,No
2018/09/15,23:50,0.304,0.187,0.304,0.293,0.281,0.149,0.091,north,0.7,No
